Regional Weather Roundup
Issued by NWS

Home | Current Version | Previous Version | Text Only | Print | Product List | Glossary On
Versions: 1 2 3 4 5 6 7 8 9 10 11 12 13 14 15 16 17 18 19 20 21 22 23 24 25 26 27 28 29 30 31 32 33 34 35 36 37 38 39 40 41 42 43 44 45 46 47 48 49 50
149
ASUS44 KLIX 281605
RWRLA
LOUISIANA WEATHER ROUNDUP
NATIONAL WEATHER SERVICE NEW ORLEANS LA
1000 AM CST SAT FEB 28 2015

NOTE: "FAIR" INDICATES FEW OR NO CLOUDS BELOW 12,000 FEET WITH NO
      SIGNIFICANT WEATHER AND/OR OBSTRUCTIONS TO VISIBILITY.
      SKY/WX - SKY CONDITION AND SIGNIFICANT WEATHER.
      TMP - AIR TEMPERATURE.    DP   - DEWPOINT TEMPERATURE.
      RH  - RELATIVE HUMIDITY.  PRES - PRESSURE.
      HX  - HEAT INDEX.         WCI  - WIND CHILL INDEX.

*  THESE STATIONS ARE NOT NWS OR FAA STATIONS AND ARE NOT UNDER
   NWS QUALITY CONTROL.

LAZ040-048-061>063-065-066-069-281700-
SOUTHEAST LOUISIANA

CITY           SKY/WX    TMP DP  RH WIND       PRES   REMARKS
N.O. AUDUBON     N/A     50  36  58 MISG        N/A
N.O. INTL ARPT PTSUNNY   51  35  54 E12       30.40F
N.O. LAKEFRONT PTSUNNY   52  35  52 E12       30.41F
SLIDELL        SUNNY     54  36  50 E10G20    30.41F
BATON ROUGE    MOSUNNY   50  32  50 E6        30.40S
BOOTHVILLE     PTSUNNY   51  45  79 NE13G21   30.40S
BELLE CHASSE   PTSUNNY   50  35  56 NE16      30.41S
BOGALUSA*        N/A     54  33  45 E8        30.44F
GALLIANO*      CLOUDY    53  41  62 NE8       30.40S
NEW ROADS*     FAIR      52  30  43 E8        30.40S
GONZALES*      FAIR      50  34  54 E9        30.40S
HAMMOND*       CLOUDY    54  34  47 E8        30.42F
HOUMA*         CLOUDY    48  37  66 NE14      30.38F
PORT FOURCHON* MOSUNNY   52  45  76 NE20      30.40F

$$

LAZ041-044-053-054-281700-
SOUTHWEST LOUISIANA

CITY           SKY/WX    TMP DP  RH WIND       PRES   REMARKS
LAKE CHARLES   CLOUDY    48  32  53 NE15      30.36S
LAFAYETTE      MOSUNNY   49  32  52 E8        30.37F
PATTERSON      MOSUNNY   48  37  66 E15       30.38S
SALT POINT       N/A     53  39  59 E8        30.34F
NEW IBERIA     CLOUDY    48  32  53 E12       30.38R
CHENAULT AIRPK PTSUNNY   46  32  57 NE10G17   30.38R

$$

LAZ027-028-281700-
CENTRAL LOUISIANA

CITY           SKY/WX    TMP DP  RH WIND       PRES   REMARKS
FORT POLK      CLOUDY    42  28  58 VRB5      30.38S
ALEXANDRIA INT CLOUDY    42  28  57 VRB6      30.41S
ALEXANDRIA     CLOUDY    44  28  53 NE6       30.41F

$$

LAZ001-002-281700-
NORTHWEST LOUISIANA

CITY           SKY/WX    TMP DP  RH WIND       PRES   REMARKS
SHREVEPORT     CLOUDY    35  24  64 E9        30.43S WCI  28
BARKSDALE AFB  CLOUDY    34  23  63 E6        30.44S WCI  29
DTN SHREVEPORT CLOUDY    34  22  61 NE7       30.45R WCI  28

$$

LAZ014-016-281700-
NORTHEAST LOUISIANA

CITY           SKY/WX    TMP DP  RH WIND       PRES   REMARKS
MONROE         MOSUNNY   37  28  70 NE7       30.49S WCI  32
TALLULAH       CLOUDY    40  28  62 NE5       30.47S

$$




USA.gov is the U.S. government's official web portal to all federal, state and local government web resources and services.